Weather History for Graham, TX

Change the Weather History Date:

Wednesday, November 7, 2012

  Actual Average (KMWL) Record (KMWL)
Temperature  
Mean Temperature 58 °F -  
Max Temperature 77 °F 65 °F 88 °F (2005)
Min Temperature 39 °F 46 °F 33 °F (1997)
Degree Days  
Heating Degree Days 7    
Growing Degree Days 8 (Base 50)    
Moisture  
Dew Point 35 °F    
Average Humidity 46    
Maximum Humidity 87    
Minimum Humidity 19    
Precipitation  
Precipitation 0.00 in - - ()
Sea Level Pressure  
Sea Level Pressure 30.10 in    
Wind  
Wind Speed 3 mph (SE)    
Max Wind Speed 10 mph    
Max Gust Speed -    
Visibility 10 miles    
Events      
Averages and records for this station are not official NWS values.
T = Trace of Precipitation, MM = Missing Value Source: NWS Daily Summary

Daily Weather History Graph

Daily Weather History Graph

Search for Another Location

Airport:

Trip Planner

Search our weather history database for the weather conditions in past years. The results will help you decide how hot, cold, wet, or windy it might be!

Date:

Astronomy

Nov. 07, 2012 Rise Set
Actual Time 6:58 AM CST 5:37 PM CST
Civil Twilight 6:32 AM CST 6:03 PM CST
Nautical Twilight 6:02 AM CST 6:32 PM CST
Astronomical Twilight 5:33 AM CST 7:01 PM CST
Moon 12:14 AM CST (11/7) 1:28 PM CST (11/7)
Length of Visible Light 11h 30m
Length of Day
10h 39m
Last Quarter, 43% of the Moon is Illuminated
Nov 7
Last Quarter
Nov 13
New
Nov 20
First Quarter
Nov 28
Full
Dec 6
Last Quarter

Hourly Weather History & Observations

Time (CST) Temp. Windchill Dew Point Humidity Pressure Visibility Wind Dir Wind Speed Gust Speed Precip Events Conditions
12:15 AM 51.8 °F - 39.2 °F 62% 30.15 in 10.0 mi Calm Calm - N/A   Clear
12:35 AM 51.8 °F - 39.2 °F 62% 30.15 in 10.0 mi ENE 4.6 mph - N/A   Clear
12:55 AM 51.8 °F - 39.2 °F 62% 30.15 in 10.0 mi NE 4.6 mph - N/A   Clear
1:15 AM 50.0 °F - 37.4 °F 62% 30.15 in 10.0 mi Calm Calm - N/A   Clear
1:35 AM 50.0 °F - 37.4 °F 62% 30.15 in 10.0 mi Calm Calm - N/A   Clear
1:55 AM 48.2 °F - 37.4 °F 66% 30.16 in 10.0 mi Calm Calm - N/A   Clear
2:15 AM 46.4 °F - 37.4 °F 71% 30.16 in 10.0 mi Calm Calm - N/A   Clear
2:35 AM 46.4 °F - 37.4 °F 71% 30.15 in 10.0 mi Calm Calm - N/A   Clear
2:55 AM 48.2 °F - 37.4 °F 66% 30.15 in 10.0 mi Calm Calm - N/A   Clear
3:15 AM 48.2 °F - 37.4 °F 66% 30.15 in 10.0 mi Calm Calm - N/A   Clear
3:35 AM 42.8 °F - 37.4 °F 81% 30.15 in 10.0 mi Calm Calm - N/A   Clear
3:55 AM 44.6 °F - 37.4 °F 76% 30.15 in 10.0 mi Calm Calm - N/A   Clear
4:15 AM 42.8 °F - 37.4 °F 81% 30.15 in 10.0 mi Calm Calm - N/A   Clear
4:35 AM 42.8 °F 40.1 °F 37.4 °F 81% 30.15 in 10.0 mi South 4.6 mph - N/A   Clear
4:55 AM 41.0 °F - 37.4 °F 87% 30.15 in 10.0 mi Calm Calm - N/A   Clear
5:15 AM 42.8 °F - 37.4 °F 81% 30.15 in 10.0 mi Calm Calm - N/A   Clear
5:35 AM 41.0 °F - 37.4 °F 87% 30.15 in 10.0 mi Calm Calm - N/A   Clear
5:55 AM 41.0 °F - 37.4 °F 87% 30.14 in 10.0 mi Calm Calm - N/A   Clear
6:15 AM 41.0 °F - 37.4 °F 87% 30.15 in 10.0 mi Calm Calm - N/A   Clear
6:35 AM 39.2 °F 37.0 °F 35.6 °F 87% 30.16 in 10.0 mi ENE 3.5 mph - N/A   Clear
6:55 AM 41.0 °F 39.0 °F 35.6 °F 81% 30.16 in 10.0 mi NNE 3.5 mph - N/A   Clear
7:15 AM 41.0 °F - 35.6 °F 81% 30.17 in 10.0 mi Calm Calm - N/A   Clear
7:35 AM 42.8 °F - 37.4 °F 81% 30.18 in 10.0 mi Calm Calm - N/A   Clear
7:55 AM 44.6 °F - 37.4 °F 76% 30.18 in 10.0 mi Calm Calm - N/A   Clear
8:15 AM 46.4 °F - 41.0 °F 81% 30.19 in 10.0 mi Calm Calm - N/A   Clear
8:35 AM 51.8 °F - 41.0 °F 67% 30.19 in 10.0 mi Calm Calm - N/A   Clear
8:55 AM 53.6 °F - 41.0 °F 62% 30.20 in 10.0 mi Calm Calm - N/A   Clear
9:15 AM 59.0 °F - 39.2 °F 48% 30.20 in 10.0 mi SSW 3.5 mph - N/A   Clear
9:35 AM 60.8 °F - 41.0 °F 48% 30.20 in 10.0 mi SSW 4.6 mph - N/A   Clear
9:55 AM 62.6 °F - 35.6 °F 37% 30.20 in 10.0 mi SSE 5.8 mph - N/A   Clear
10:15 AM 66.2 °F - 33.8 °F 30% 30.19 in 10.0 mi SE 6.9 mph - N/A   Clear
10:35 AM 66.2 °F - 32.0 °F 28% 30.19 in 10.0 mi SE 8.1 mph - N/A   Clear
10:55 AM 68.0 °F - 32.0 °F 26% 30.18 in 10.0 mi SSE 8.1 mph - N/A   Clear
11:15 AM 69.8 °F - 32.0 °F 25% 30.17 in 10.0 mi SE 9.2 mph - N/A   Clear
11:35 AM 69.8 °F - 32.0 °F 25% 30.16 in 10.0 mi East 6.9 mph - N/A   Clear
11:55 AM 71.6 °F - 32.0 °F 23% 30.14 in 10.0 mi ESE 6.9 mph - N/A   Clear
12:15 PM 71.6 °F - 32.0 °F 23% 30.13 in 10.0 mi SE 8.1 mph - N/A   Clear
12:35 PM 73.4 °F - 32.0 °F 22% 30.11 in 10.0 mi SSE 8.1 mph - N/A   Clear
12:55 PM 73.4 °F - 32.0 °F 22% 30.10 in 10.0 mi SSE 6.9 mph - N/A   Clear
1:15 PM 75.2 °F - 32.0 °F 21% 30.09 in 10.0 mi SE 9.2 mph - N/A   Clear
1:35 PM 75.2 °F - 32.0 °F 21% 30.08 in 10.0 mi SE 6.9 mph - N/A   Clear
1:55 PM 77.0 °F - 32.0 °F 19% 30.07 in 10.0 mi SE 10.4 mph - N/A   Clear
2:15 PM 77.0 °F - 33.8 °F 21% 30.06 in 10.0 mi South 9.2 mph - N/A   Clear
2:35 PM 77.0 °F - 33.8 °F 21% 30.05 in 10.0 mi SE 10.4 mph - N/A   Clear
2:55 PM 77.0 °F - 32.0 °F 19% 30.05 in 10.0 mi ESE 8.1 mph - N/A   Clear
3:15 PM 77.0 °F - 32.0 °F 19% 30.04 in 10.0 mi SE 8.1 mph - N/A   Clear
3:35 PM 77.0 °F - 32.0 °F 19% 30.03 in 10.0 mi ESE 5.8 mph - N/A   Clear
3:55 PM 77.0 °F - 33.8 °F 21% 30.03 in 10.0 mi ESE 9.2 mph - N/A   Clear
4:15 PM 77.0 °F - 33.8 °F 21% 30.03 in 10.0 mi SE 9.2 mph - N/A   Clear
4:35 PM 77.0 °F - 33.8 °F 21% 30.03 in 10.0 mi ESE 6.9 mph - N/A   Clear
4:55 PM 75.2 °F - 33.8 °F 22% 30.03 in 10.0 mi ESE 4.6 mph - N/A   Clear
5:15 PM 73.4 °F - 33.8 °F 23% 30.03 in 10.0 mi East 3.5 mph - N/A   Clear
5:35 PM 69.8 °F - 33.8 °F 27% 30.03 in 10.0 mi East 4.6 mph - N/A   Clear
5:55 PM 68.0 °F - 33.8 °F 28% 30.03 in 10.0 mi East 5.8 mph - N/A   Clear
6:15 PM 68.0 °F - 33.8 °F 28% 30.03 in 10.0 mi East 8.1 mph - N/A   Clear
6:35 PM 66.2 °F - 33.8 °F 30% 30.03 in 10.0 mi ESE 6.9 mph - N/A   Clear
6:55 PM 64.4 °F - 33.8 °F 32% 30.03 in 10.0 mi ESE 6.9 mph - N/A   Clear
7:15 PM 64.4 °F - 33.8 °F 32% 30.03 in 10.0 mi ESE 6.9 mph - N/A   Clear
7:35 PM 64.4 °F - 33.8 °F 32% 30.03 in 10.0 mi ESE 8.1 mph - N/A   Clear
7:55 PM 64.4 °F - 33.8 °F 32% 30.03 in 10.0 mi ESE 8.1 mph - N/A   Clear
8:15 PM 64.4 °F - 33.8 °F 32% 30.03 in 10.0 mi ESE 9.2 mph - N/A   Clear
8:35 PM 64.4 °F - 33.8 °F 32% 30.04 in 10.0 mi ESE 10.4 mph - N/A   Clear
8:55 PM 62.6 °F - 33.8 °F 34% 30.04 in 10.0 mi SE 9.2 mph - N/A   Clear
9:15 PM 62.6 °F - 33.8 °F 34% 30.04 in 10.0 mi ESE 8.1 mph - N/A   Clear
9:35 PM 60.8 °F - 33.8 °F 36% 30.04 in 10.0 mi SE 6.9 mph - N/A   Clear
9:55 PM 60.8 °F - 33.8 °F 36% 30.04 in 10.0 mi SE 6.9 mph - N/A   Clear
10:15 PM 60.8 °F - 35.6 °F 39% 30.04 in 10.0 mi SE 6.9 mph - N/A   Clear
10:35 PM 59.0 °F - 35.6 °F 42% 30.04 in 10.0 mi SE 6.9 mph - N/A   Clear
10:55 PM 59.0 °F - 35.6 °F 42% 30.04 in 10.0 mi SE 5.8 mph - N/A   Clear
11:15 PM 59.0 °F - 35.6 °F 42% 30.03 in 10.0 mi SE 6.9 mph - N/A   Clear
11:35 PM 59.0 °F - 35.6 °F 42% 30.03 in 10.0 mi SE 6.9 mph - N/A   Clear
11:55 PM 59.0 °F - 35.6 °F 42% 30.02 in 10.0 mi SE 6.9 mph - N/A   Clear